星链-4125 (STARLINK-4125 )

导读 | 豆包AI

STARLINK-4125是美国太空探索技术公司SpaceX星链星座的一员,于2022年7月24日发射升空,属于星链Group 4-16批次。该卫星运行在近地轨道,当前轨道高度约548公里,质量约297千克,主要为全球提供高速低延迟的宽带互联网接入服务,尤其填补偏远地区网络基础设施空白。星链卫星组网虽带来全球互联便利,但其大规模部署也引发天文观测受干扰、太空轨道拥堵等争议。

Basic Information
目录编号:
53244
目录名称:
STARLINK-4125
国际标识:
2022-086C
轨道中心:
EARTH
卫星名称:
星链-4125
卫星全名:
星链-4125 (STARLINK-4125 )
卫星状态:
在轨 (已飞行1330 天)
发射日期:
2022-07-24 UTC
国别 :
美国 (US)
星等 :
--
Orbit Information
数据来源 国际轨道数据 AOE轨道数据
星历时间 2026-03-15T00:03:52+0800
14小时前
查看轨道信息
2026-03-11T08:00:00+0800
4天前
查看轨道信息
半长轴 6917.863km 6917.874km
偏心率 0.0001042 0.0000625
轨道倾角 53.217° 53.211°
近地点辐角 87.916° 65.784°
升交点赤经 181.845° 198.314°
平近点角 272.195° 152.201°
近地点 539.005km 539.304km
远地点 540.447km 540.17km
周期 95.437分钟 95.437分钟
每日圈数 15.08846 15.088424
Detailed Information
固有亮度:
5
最大亮度:
2.5
卫星平台:
Starlink v1.5
覆盖范围:
全球
运营商:
太空探索技术公司
运营商所在国:
美国
制造商(研发单位):
太空探索技术公司
制造商所在国:
美国
使用方式:
暂无
Satellite Introduction
星链(Starlink)计划是由太空探索技术公司(SpaceX)提出的一个巨型低轨卫星互联网星座项目,计划在2019年至2024年间在太空搭建由约1.2万颗卫星组成的“星链”网络,其中1584颗将部署在地球上空550千米处的近地轨道,并从2020年开始工作。该卫星仍在工作。
2D Orbit Map
3D Orbit Map
Orbit Altitude Analysis Chart
Orbit Inclination Analysis Chart
Orbit Comprehensive Analysis Chart
View Comprehensive Chart